Dauntless Aviation
Airports Europe Germany
EDSW

Altdorf-Wallburg

Altdorf-Wallburg, GERMANY

Airport Info
Suggest Updated Information for this Airport

Location

Latitude / Longitude: 48°16'11"N / 7°50'31"E
  48°16.188'N / 7°50.532'E
  48.2698 / 7.8422
Satellite photo at:
Airport distance calculator
From:
Weather Reports

METAR

LFST
18.2nm NW
LFST 270230Z AUTO 23002KT CAVOK 18/17 Q1017 NOSIG
EDSB
32.3nm N
EDSB 270220Z VRB01KT CAVOK 18/18 Q1017

TAF

LFST
18.2nm NW
TAF LFST 262300Z 2700/2724 VRB02KT CAVOK BECMG 2712/2714 16005KT TEMPO 2714/2718 FEW080CB
EDSB
32.3nm N
TAF EDSB 261700Z 2618/2718 VRB03KT CAVOK
Safelog

 

Dauntless Aviation

© 2007-2016 Dauntless Aviation, all rights reserved
Information provided via PilotNav comes from a variety of official and unofficial data sources. As errors are possible, do not use PilotNav for primary flight planning purposes. Verify any information that you receive via PilotNav with current and canonical charts and other official documents. The material in this database is subject to database copyrights held by Dauntless Aviation and may not be copied without the express permission of Dauntless Aviation - licenses for use of part of all of this data are available for purchase; enquire via the Dauntless Aviation helpdesk. A number of mechanisms and markers exist in the database to protect against and identify infringement / copyright. Automated queries against this website are stictly prohibited, and all activity is logged and analyzed.